Retour au catalogue

ZORKIY-2M NO. 6

ActifScienceSSO
NORAD 59775·PAYLOAD·🇷🇺 Russia
Ce nom de satellite n'a pas encore été confirmé par des sources officielles.

Lancé May 16, 2024 depuis Plesetsk Cosmodrome

Loading…

Prochains Passages (prochaines 24 heures)

TLE

FraisSource: Space-Track

Époque: Sep 14, 2026, 14:35 UTC

1 59775U 24092C   26257.60773962  .00008410  00000-0  28404-3 0  9996
2 59775  97.6755  31.4377 0007640 222.9023 137.1622 15.30911059129251

Suivez ZORKIY-2M NO. 6 en temps réel avec AllMySat

Download on the App Store